DELTA 1 DEB, 21280

Orbit data source: Space-Track

DELTA 1 DEB, 21280 is space debris in SSO originally from a launch on Thu, 12 Jun 1975 UTC launched from the Air Force Western Test Range (AFWTR). Debris objects in space refer to the collection of defunct objects orbiting the Earth. Examples of debris include non-operational satellites, rocket bodies, and fragments generated from explosions, collisions, or faulty payload assembly.

Loading next visibility...
Identifier
21280, 1975-052R
Orbit
SSO
Country
Flag of USUS
Related business
Manufacturer
Unknown
Mission
Spacecraft
Bus & Motor
Unknown
Mass
Unknown
Launch date (UTC)
1975-06-12 (50 years ago)
Launch vehicle
Unknown
Launch site
Air Force Western Test Range (AFWTR)
Object type
Payload
Rocket body
Debris
Shape & HBR
Unknown shape, 0.2 m
Radar Cross Section
Medium (>0.1 m² and <1 m²)

Expand to show TLE details & history
Last TLE update: 14 hours ago

TLE from 14 hours ago
0 DELTA 1 DEB
1 21280U 75052R   25309.08946525  .00000070  00000-0  15772-3 0  9992
2 21280  99.3858 128.0954 0051305  41.4163  76.7800 13.56008417706937
Epoch: 2025-11-05T02:08Z
TLE epoch observation values (Epoch: 2025-11-05T02:08:49.797Z)
Latitude
59.95751°
Longitude
-112.16009°
Altitude
1,051.824 km
Speed
7.336 km/s
True Right ascension
21h 38m 27s
True Declination
59° 48' 51"
Sunlit
Object was in daylight at epoch
Visualization orbit readout
Latitude
Unknown
Longitude
Unknown
Altitude
Unknown
Speed
Unknown
Apparent Right ascension
Unknown
Apparent Declination
Unknown
Sunlit
N/A
Visualization observer readout
Local Sidereal Time
11:41:21
Azimuth
Unknown
Elevation
Unknown
Doppler factor
Unknown
Orbital elements
Apogee altitude
1,085.609 km
Perigee altitude
1,009.414 km
Semi-major axis
7,425.648 km
Eccentricity
0.00513
Inclination
99.3858°
RAAN
128.0954°
Arg. of periapsis
41.4163°
True anomaly
77.35316°
Mean anomaly
76.78°
Eccentric anomaly
77.0665°
Mean motion
3.39189 °/min
Orbital period
106.14 mins
BSTAR
0.00015772
Loading maneuver chart data...
Computing Atmospheric mass density...
Loading historical data...
Loading historical data...
Loading historical data...
Loading historical data...
Loading historical data...
Loading historical data...
Loading historical data...

Documentation

Showing up to 5 results
|